Weather reports worldwide

Advertisment
Verona/Villafranca, Italy (16090): temperature & dewpoint: 11.10.2019 23:00:00 - 17.10.2019 23:00:00 (CEST)Verona/Villafranca, Italy (16090): wind speed: 11.10.2019 23:00:00 - 17.10.2019 23:00:00 (CEST)Verona/Villafranca, Italy (16090): wind direction: 11.10.2019 23:00:00 - 17.10.2019 23:00:00 (CEST)Verona/Villafranca, Italy (16090): reduced air pressure: 11.10.2019 23:00:00 - 17.10.2019 23:00:00 (CEST)Verona/Villafranca, Italy (16090): visibility: 11.10.2019 23:00:00 - 17.10.2019 23:00:00 (CEST)Verona/Villafranca, Italy (16090): precipitation: 11.10.2019 23:00:00 - 17.10.2019 23:00:00 (CEST)
Date & Time tt [°C] td [°C] ff [km/h] ff [kn] dd ppp [hPa] vv [km] rr [mm]
17.10.2019 23:00:00 15,8 14,0 5 3 NNW 1019,0 10 0,0
17.10.2019 22:00:00 16,0 14,0 4 2 S - 10 -
17.10.2019 21:00:00 16,0 14,0 4 2 - - 10 -
17.10.2019 20:00:00 16,5 13,6 2 1 - 1018,7 10 -
17.10.2019 19:00:00 18,0 13,0 5 3 WSW - 10 -
17.10.2019 18:00:00 19,0 13,0 11 6 SW - 10 -
17.10.2019 17:00:00 19,2 12,9 16 9 SSW 1018,4 10 0,0
17.10.2019 16:00:00 20,0 12,0 16 9 SW - 10 -
17.10.2019 15:00:00 21,0 12,0 11 6 SW - 10 -
17.10.2019 14:00:00 20,5 11,0 5 3 - 1018,8 10 -
17.10.2019 13:00:00 19,0 13,0 4 2 - - 10 -
17.10.2019 12:00:00 18,0 12,0 4 2 - - 10 -
17.10.2019 11:00:00 16,0 13,0 5 3 ESE - 10 -
17.10.2019 10:00:00 14,0 12,0 2 1 - - 10 -
17.10.2019 09:00:00 11,0 11,0 5 3 N - 10 -
17.10.2019 08:00:00 8,0 8,0 5 3 NNW - 6 -
17.10.2019 07:00:00 10,0 9,0 2 1 - - 8 -
17.10.2019 06:00:00 10,0 9,0 8 4 NW - 10 -
17.10.2019 05:00:00 10,0 9,0 8 4 N - 10 -
17.10.2019 04:00:00 - - - - - - - -
17.10.2019 03:00:00 11,0 10,0 8 4 NW - 10 -
17.10.2019 02:00:00 11,0 11,0 9 5 NW - 10 -
17.10.2019 01:00:00 11,0 10,0 8 4 N - 10 -
17.10.2019 00:00:00 11,0 10,0 9 5 NNW - 10 -
16.10.2019 23:00:00 - - - - - - - -
16.10.2019 22:00:00 - - - - - - - -
16.10.2019 21:00:00 - - - - - - - -
16.10.2019 20:00:00 - - - - - - - -
16.10.2019 19:00:00 - - - - - - - -
16.10.2019 18:00:00 - - - - - - - -
16.10.2019 17:00:00 - - - - - - - -
16.10.2019 16:00:00 - - - - - - - -
16.10.2019 15:00:00 20,0 12,0 15 8 SSW - 10 -
16.10.2019 14:00:00 19,3 13,3 13 7 S 1016,3 10 -
16.10.2019 13:00:00 20,0 14,0 11 6 W - 10 -
16.10.2019 12:00:00 18,0 14,0 13 7 W - 10 -
16.10.2019 11:00:00 14,5 14,4 11 6 WSW 1015,9 5 0,0
16.10.2019 10:00:00 13,0 13,0 13 7 SSW - 0,3 -
16.10.2019 09:00:00 12,0 12,0 5 3 SSW - 1,0 -
16.10.2019 08:00:00 11,9 11,8 8 4 WSW 1014,2 6 -
16.10.2019 07:00:00 11,0 11,0 9 5 SW - 10 -
16.10.2019 06:00:00 10,0 10,0 5 3 N - 10 -
16.10.2019 05:00:00 11,3 11,2 4 2 W 1012,7 10 0,0
16.10.2019 04:00:00 12,0 12,0 8 4 NW - 10 -
16.10.2019 03:00:00 12,0 12,0 8 4 N - 10 -
16.10.2019 02:00:00 13,7 13,6 8 4 WNW 1012,3 10 -
16.10.2019 01:00:00 14,0 14,0 11 6 NNE - 7 -
16.10.2019 00:00:00 15,0 15,0 5 3 ENE - 10 -
15.10.2019 23:00:00 15,3 15,1 2 1 - 1011,2 10 0,0
15.10.2019 22:00:00 16,0 15,0 5 3 ESE - 10 -
15.10.2019 21:00:00 17,0 15,0 8 4 NE - 10 -
15.10.2019 20:00:00 17,2 16,4 18 10 NNE 1010,1 4,0 -
15.10.2019 19:00:00 17,0 16,0 16 9 ENE - 3,0 -
15.10.2019 18:00:00 19,0 15,0 22 12 ENE - 7 -
15.10.2019 17:00:00 18,8 15,5 21 11 ENE 1010,4 6 0,0
15.10.2019 16:00:00 20,0 15,0 26 14 ENE - 6 -
15.10.2019 15:00:00 22,0 15,0 26 14 ENE - 7 -
15.10.2019 14:00:00 21,6 15,1 24 13 ENE 1013,1 7 -
15.10.2019 13:00:00 20,0 15,0 28 15 ENE - 7 -
15.10.2019 12:00:00 20,0 15,0 21 11 ENE - 6 -
15.10.2019 11:00:00 19,9 15,1 22 12 ENE 1015,5 5 0,0
15.10.2019 10:00:00 18,0 15,0 13 7 ENE - 3,0 -
15.10.2019 09:00:00 17,0 14,0 5 3 N - 2,0 -
15.10.2019 08:00:00 15,8 14,1 8 4 NNE 1016,2 2,0 -
15.10.2019 07:00:00 15,0 14,0 8 4 ENE - 3,0 -
15.10.2019 06:00:00 15,0 15,0 5 3 ENE - 4,0 -
15.10.2019 05:00:00 15,1 14,4 5 3 SE 1017,2 3,5 0,0
15.10.2019 04:00:00 16,0 14,0 5 3 N - 4,0 -
15.10.2019 03:00:00 16,0 14,0 5 3 N - 4,0 -
15.10.2019 02:00:00 15,9 14,7 2 1 - 1019,0 4,0 -
15.10.2019 01:00:00 16,0 15,0 4 2 NE - 4,0 -
15.10.2019 00:00:00 17,0 15,0 4 2 - - 5 -
14.10.2019 23:00:00 16,3 14,1 4 2 E 1020,1 5 0,0
14.10.2019 22:00:00 15,0 14,0 4 2 NNW - 5 -
14.10.2019 21:00:00 16,0 14,0 4 2 N - 5 -
14.10.2019 20:00:00 17,2 13,9 5 3 ENE 1019,9 5 -
14.10.2019 19:00:00 18,0 15,0 4 2 ENE - 3,0 -
14.10.2019 18:00:00 20,0 14,0 4 2 - - 4,0 -
14.10.2019 17:00:00 20,5 13,9 4 2 - 1020,1 4,0 0,0
14.10.2019 16:00:00 21,0 14,0 5 3 - - 4,0 -
14.10.2019 15:00:00 21,0 14,0 4 2 - - 4,0 -
14.10.2019 14:00:00 20,4 13,7 5 3 - 1021,5 4,0 -
14.10.2019 13:00:00 20,0 14,0 4 2 - - 4,0 -
14.10.2019 12:00:00 18,0 13,0 2 1 - - 4,0 -
14.10.2019 11:00:00 16,9 12,9 4 2 - 1022,9 4,0 0,0
14.10.2019 10:00:00 15,0 12,0 5 3 NNE - 3,0 -
14.10.2019 09:00:00 12,0 12,0 5 3 NW - 3,0 -
14.10.2019 08:00:00 9,6 9,3 4 2 SW 1022,7 2,0 -
14.10.2019 07:00:00 11,0 10,0 2 1 - - 5 -
14.10.2019 06:00:00 11,0 10,0 4 2 N - 3,0 -
14.10.2019 05:00:00 10,8 10,2 4 2 NW 1022,8 2,5 0,0
14.10.2019 04:00:00 11,0 10,0 4 2 NW - 3,5 -
14.10.2019 03:00:00 11,0 11,0 4 2 NNW - 2,5 -
14.10.2019 02:00:00 11,3 10,9 4 2 NNW 1023,6 2,5 -
14.10.2019 01:00:00 12,0 11,0 5 3 NW - 3,0 -
14.10.2019 00:00:00 13,0 12,0 11 6 NW - 3,0 -
13.10.2019 23:00:00 12,8 12,0 5 3 NW 1023,9 4,0 0,0
13.10.2019 22:00:00 14,0 13,0 4 2 - - 5 -
13.10.2019 21:00:00 15,0 13,0 8 4 - - 5 -
13.10.2019 20:00:00 15,5 13,1 4 2 SW 1023,6 5 -
13.10.2019 19:00:00 18,0 14,0 4 2 - - 3,5 -
13.10.2019 18:00:00 19,0 14,0 4 2 - - 5 -
13.10.2019 17:00:00 19,4 13,1 5 3 SW 1023,1 5 0,0
13.10.2019 16:00:00 20,0 14,0 11 6 SW - 5 -
13.10.2019 15:00:00 19,0 13,0 8 4 S - 5 -
13.10.2019 14:00:00 18,9 12,6 4 2 - 1023,9 4,0 -
13.10.2019 13:00:00 17,0 14,0 4 2 - - 4,0 -
13.10.2019 12:00:00 16,0 12,0 4 2 - - 4,0 -
13.10.2019 11:00:00 14,9 11,6 4 2 - 1024,5 4,0 0,0
13.10.2019 10:00:00 14,0 11,0 2 1 - - 4,0 -
13.10.2019 09:00:00 11,0 11,0 4 2 - - 2,5 -
13.10.2019 08:00:00 9,5 9,2 4 2 SE 1023,5 1,5 -
13.10.2019 07:00:00 12,0 11,0 4 2 - - 4,0 -
13.10.2019 06:00:00 10,0 10,0 2 1 N - 3,0 -
13.10.2019 05:00:00 10,2 9,8 5 3 W 1023,4 2,0 0,0
13.10.2019 04:00:00 11,0 11,0 4 2 W - 3,0 -
13.10.2019 03:00:00 11,0 10,0 8 4 NW - 3,0 -
13.10.2019 02:00:00 11,6 10,8 5 3 NNW 1023,9 4,0 -
13.10.2019 01:00:00 12,0 11,0 4 2 W - 5 -
13.10.2019 00:00:00 13,0 12,0 4 2 NNW - 7 -
12.10.2019 23:00:00 12,9 11,5 4 2 NNW 1024,3 8 0,0
12.10.2019 22:00:00 13,0 12,0 5 3 NW - 8 -
12.10.2019 21:00:00 14,0 12,0 4 2 - - 8 -
12.10.2019 20:00:00 14,9 12,6 5 3 WSW 1023,8 8 -
12.10.2019 19:00:00 17,0 13,0 4 2 - - 5 -
12.10.2019 18:00:00 19,0 13,0 8 4 SW - 6 -
12.10.2019 17:00:00 19,3 12,8 5 3 S 1023,0 6 0,0
12.10.2019 16:00:00 20,0 12,0 8 4 SSW - 7 -
12.10.2019 15:00:00 20,0 12,0 4 2 - - 7 -
12.10.2019 14:00:00 19,4 11,9 5 3 - 1023,7 7 -
12.10.2019 13:00:00 19,0 12,0 5 3 SW - 8 -
12.10.2019 12:00:00 17,0 12,0 4 2 - - 8 -
12.10.2019 11:00:00 15,9 11,3 4 2 - 1024,5 8 0,0
12.10.2019 10:00:00 14,0 11,0 2 1 - - 8 -
12.10.2019 09:00:00 11,0 10,0 4 2 NW - 9 -
12.10.2019 08:00:00 8,2 7,7 5 3 NNW 1023,5 8 -
12.10.2019 07:00:00 8,0 8,0 5 3 NW - 10 -
12.10.2019 06:00:00 8,0 7,0 2 1 NW - 9 -
12.10.2019 05:00:00 7,8 7,3 2 1 - 1023,2 6 0,0
12.10.2019 04:00:00 9,0 8,0 4 2 - - 6 -
12.10.2019 03:00:00 11,0 10,0 4 2 NW - 9 -
12.10.2019 02:00:00 10,8 10,2 4 2 NW 1023,6 10 -
12.10.2019 01:00:00 11,0 10,0 4 2 NNW - 10 -
12.10.2019 00:00:00 11,0 9,0 8 4 NW - 10 -
11.10.2019 23:00:00 11,8 10,6 4 2 NW 1023,8 10 0,0

tt = temperature
td = dewpoint
ff = wind speed
dd = wind direction
ppp = reduced air pressure
vv = visibility
rr = precipitation

Next stations